Weather History for Copper Mountain, CO

Change the Weather History Date:

Thursday, March 6, 2014

  Actual Average (KLXV) Record (KLXV)
Temperature  
Mean Temperature 30 °F -  
Max Temperature 37 °F 35 °F 61 °F (1987)
Min Temperature 24 °F 9 °F -13 °F (1984)
Degree Days  
Heating Degree Days 34 43  
Month to date heating degree days 262  
Since 1 July heating degree days 7972  
Cooling Degree Days 0 0  
Month to date cooling degree days 0  
Year to date cooling degree days 0  
Moisture  
Dew Point 6 °F    
Average Humidity 38    
Maximum Humidity 74    
Minimum Humidity 23    
Precipitation  
Precipitation 0.01 in 0.03 in 0.38 in (1991)
Month to date precipitation 0.17  
Year to date precipitation 1.49  
Sea Level Pressure  
Sea Level Pressure 30.17 in    
Wind  
Wind Speed 14 mph (WSW)    
Max Wind Speed 21 mph    
Max Gust Speed 32 mph    
Visibility 9 miles    
Events      
T = Trace of Precipitation, MM = Missing Value Source: NWS Daily Summary

Daily Weather History Graph

Daily Weather History Graph

Search for Another Location

Airport:

Trip Planner

Search our weather history database for the weather conditions in past years. The results will help you decide how hot, cold, wet, or windy it might be!

Date:

Astronomy

Mar. 06, 2014 Rise Set
Actual Time 6:29 AM MST 6:02 PM MST
Civil Twilight 6:03 AM MST 6:29 PM MST
Nautical Twilight 5:32 AM MST 7:00 PM MST
Astronomical Twilight 5:00 AM MST 7:31 PM MST
Moon 9:41 AM MST (3/6) No Moon Set
Length of Visible Light 12h 26m
Length of Day
11h 32m
Waxing Crescent, 33% of the Moon is Illuminated
Mar 6
Waxing Crescent
Mar 8
First Quarter
Mar 16
Full
Mar 23
Last Quarter
Mar 30
New

Hourly Weather History & Observations

Time (MST) Temp. Windchill Dew Point Humidity Pressure Visibility Wind Dir Wind Speed Gust Speed Precip Events Conditions
12:16 AM 24.8 °F 11.1 °F 1.4 °F 36% 30.27 in 7.0 mi SW 18.4 mph 26.5 mph N/A   Clear
12:36 AM 24.8 °F 11.5 °F -0.4 °F 34% 30.27 in 10.0 mi SW 17.3 mph 23.0 mph N/A   Clear
12:56 AM 24.8 °F 11.5 °F 3.2 °F 40% 30.26 in 3.0 mi SW 17.3 mph 32.2 mph N/A   Haze
1:16 AM 24.8 °F 10.7 °F 3.2 °F 40% 30.25 in 7.0 mi WSW 19.6 mph 27.6 mph N/A   Scattered Clouds
1:36 AM 26.6 °F 13.4 °F 6.8 °F 43% 30.25 in 4.0 mi WSW 18.4 mph 28.8 mph N/A   Haze
1:56 AM 26.6 °F 13.1 °F 6.8 °F 43% 30.24 in 7.0 mi WSW 19.6 mph 26.5 mph N/A   Clear
2:16 AM 26.6 °F 13.1 °F 6.8 °F 43% 30.24 in 10.0 mi WSW 19.6 mph 25.3 mph N/A   Clear
2:35 AM 26.6 °F - 6.8 °F 43% 30.23 in 5.0 mi North - - N/A   Haze
2:56 AM 26.6 °F - 5.0 °F 40% 30.24 in 10.0 mi North - - N/A   Clear
3:16 AM 26.6 °F 16.8 °F 5.0 °F 40% 30.24 in 10.0 mi WSW 10.4 mph 16.1 mph N/A   Clear
3:36 AM 24.8 °F 16.9 °F 6.8 °F 46% 30.23 in 10.0 mi WSW 6.9 mph - N/A   Clear
3:56 AM 26.6 °F 14.3 °F 5.0 °F 40% 30.22 in 10.0 mi WSW 16.1 mph 24.2 mph N/A   Clear
4:16 AM 26.6 °F 13.4 °F 5.0 °F 40% 30.22 in 10.0 mi WSW 18.4 mph - N/A   Clear
4:36 AM 26.6 °F 13.8 °F 5.0 °F 40% 30.23 in 7.0 mi SW 17.3 mph 27.6 mph N/A   Clear
4:56 AM 26.6 °F 14.3 °F 3.2 °F 37% 30.23 in 10.0 mi WSW 16.1 mph 23.0 mph N/A   Clear
5:15 AM 24.8 °F 16.1 °F 3.2 °F 40% 30.23 in 10.0 mi SSW 8.1 mph - N/A   Clear
5:36 AM 26.6 °F 14.7 °F 3.2 °F 37% 30.23 in 10.0 mi WSW 15.0 mph 19.6 mph N/A   Clear
5:56 AM 26.6 °F 16.2 °F 1.4 °F 34% 30.24 in 10.0 mi WSW 11.5 mph 25.3 mph N/A   Clear
6:16 AM 26.6 °F 13.8 °F 1.4 °F 34% 30.23 in 10.0 mi WSW 17.3 mph 25.3 mph N/A   Clear
6:36 AM 26.6 °F - 1.4 °F 34% 30.23 in 10.0 mi North - - N/A   Clear
6:56 AM 24.8 °F 14.0 °F 3.2 °F 40% 30.23 in 10.0 mi WSW 11.5 mph - N/A   Clear
7:16 AM 26.6 °F 20.0 °F 3.2 °F 37% 30.25 in 10.0 mi WSW 5.8 mph - N/A   Clear
7:36 AM 26.6 °F 17.5 °F 3.2 °F 37% 30.25 in 10.0 mi SW 9.2 mph - N/A   Clear
7:56 AM 28.4 °F 19.7 °F 3.2 °F 34% 30.25 in 10.0 mi SW 9.2 mph - N/A   Clear
8:16 AM 30.2 °F 23.4 °F 3.2 °F 32% 30.25 in 10.0 mi SSW 6.9 mph - N/A   Clear
8:36 AM 30.2 °F 22.6 °F 3.2 °F 32% 30.25 in 10.0 mi SW 8.1 mph - N/A   Clear
8:56 AM 30.2 °F 21.3 °F 3.2 °F 32% 30.25 in 10.0 mi SW 10.4 mph 21.9 mph N/A   Clear
9:16 AM 32.0 °F 23.6 °F 5.0 °F 32% 30.25 in 10.0 mi SW 10.4 mph 21.9 mph N/A   Clear
9:35 AM 32.0 °F 23.0 °F 5.0 °F 32% 30.26 in 10.0 mi SW 11.5 mph - N/A   Clear
9:56 AM 32.0 °F 21.2 °F 5.0 °F 32% 30.25 in 10.0 mi WSW 16.1 mph 21.9 mph N/A   Clear
10:16 AM 33.8 °F 24.3 °F 8.6 °F 35% 30.24 in 10.0 mi WSW 13.8 mph 23.0 mph N/A   Clear
10:36 AM 33.8 °F 25.3 °F 8.6 °F 35% 30.24 in 10.0 mi WSW 11.5 mph 20.7 mph N/A   Clear
10:56 AM 33.8 °F 25.8 °F 8.6 °F 35% 30.23 in 10.0 mi SW 10.4 mph 18.4 mph N/A   Clear
11:16 AM 33.8 °F 27.0 °F 8.6 °F 35% 30.22 in 10.0 mi SW 8.1 mph - N/A   Clear
11:36 AM 33.8 °F 26.4 °F 8.6 °F 35% 30.21 in 10.0 mi SW 9.2 mph - N/A   Clear
11:56 AM 35.6 °F 28.6 °F 8.6 °F 33% 30.20 in 10.0 mi SSW 9.2 mph 16.1 mph N/A   Clear
12:16 PM 35.6 °F 26.6 °F 5.0 °F 28% 30.19 in 10.0 mi WSW 13.8 mph 17.3 mph N/A   Clear
12:36 PM 35.6 °F 29.2 °F 8.6 °F 33% 30.19 in 10.0 mi SW 8.1 mph - N/A   Clear
12:56 PM 35.6 °F 29.2 °F 6.8 °F 30% 30.18 in 10.0 mi SW 8.1 mph 11.5 mph N/A   Clear
1:16 PM 37.4 °F 29.8 °F 6.8 °F 28% 30.17 in 10.0 mi SSW 11.5 mph 25.3 mph N/A   Clear
1:36 PM 37.4 °F 28.5 °F 5.0 °F 26% 30.15 in 10.0 mi SW 15.0 mph 24.2 mph N/A   Clear
1:55 PM 35.6 °F 25.5 °F 3.2 °F 26% 30.14 in 10.0 mi WSW 17.3 mph 25.3 mph 0.01 in   Clear
2:16 PM 37.4 °F 27.8 °F 3.2 °F 24% 30.14 in 10.0 mi SW 17.3 mph 31.1 mph N/A   Clear
2:36 PM 37.4 °F 30.3 °F 3.2 °F 24% 30.14 in 10.0 mi SW 10.4 mph 24.2 mph N/A   Clear
2:56 PM 33.8 °F 23.2 °F -0.4 °F 23% 30.13 in 10.0 mi WSW 17.3 mph 25.3 mph N/A   Clear
3:16 PM 33.8 °F 25.3 °F -0.4 °F 23% 30.12 in 10.0 mi SW 11.5 mph 23.0 mph N/A   Clear
3:36 PM 33.8 °F 23.2 °F 1.4 °F 25% 30.12 in 10.0 mi WSW 17.3 mph 25.3 mph N/A   Clear
3:56 PM 33.8 °F 23.2 °F 1.4 °F 25% 30.11 in 10.0 mi West 17.3 mph 28.8 mph N/A   Clear
4:16 PM 33.8 °F 23.2 °F 3.2 °F 28% 30.10 in 7.0 mi WSW 17.3 mph 31.1 mph N/A   Clear
4:36 PM 33.8 °F 23.9 °F 1.4 °F 25% 30.10 in 10.0 mi WSW 15.0 mph 29.9 mph N/A   Clear
4:56 PM 33.8 °F 24.8 °F 3.2 °F 28% 30.10 in 10.0 mi WSW 12.7 mph 23.0 mph N/A   Clear
5:16 PM 33.8 °F 23.2 °F 1.4 °F 25% 30.08 in 10.0 mi WSW 17.3 mph 24.2 mph N/A   Clear
5:36 PM 33.8 °F 22.5 °F 1.4 °F 25% 30.08 in 10.0 mi West 19.6 mph 26.5 mph N/A   Clear
5:56 PM 33.8 °F 24.3 °F 10.4 °F 38% 30.09 in 10.0 mi West 13.8 mph - N/A   Clear
6:16 PM 32.0 °F 21.2 °F 10.4 °F 41% 30.08 in 10.0 mi West 16.1 mph 23.0 mph N/A   Clear
6:36 PM 32.0 °F 19.8 °F 10.4 °F 41% 30.07 in 10.0 mi West 20.7 mph 25.3 mph N/A   Clear
6:56 PM 32.0 °F 23.6 °F 10.4 °F 41% 30.08 in 10.0 mi WSW 10.4 mph 23.0 mph N/A   Clear
7:15 PM 32.0 °F 22.1 °F 10.4 °F 41% 30.07 in 10.0 mi West 13.8 mph 24.2 mph N/A   Clear
7:36 PM 30.2 °F 20.8 °F 8.6 °F 40% 30.07 in 10.0 mi West 11.5 mph 18.4 mph N/A   Clear
7:56 PM 30.2 °F 20.8 °F 10.4 °F 44% 30.07 in 10.0 mi WSW 11.5 mph - N/A   Clear
8:16 PM 28.4 °F 18.5 °F 8.6 °F 43% 30.06 in 10.0 mi WSW 11.5 mph 25.3 mph N/A   Clear
8:34 PM 30.2 °F 18.1 °F 8.6 °F 40% 30.06 in 10.0 mi West 18.4 mph 26.5 mph N/A   Clear
8:56 PM 28.4 °F 22.2 °F 10.4 °F 47% 30.07 in 10.0 mi West 5.8 mph - N/A   Mostly Cloudy
9:16 PM 28.4 °F 18.5 °F 14.0 °F 55% 30.06 in 10.0 mi SW 11.5 mph - N/A   Mostly Cloudy
9:36 PM 28.4 °F 17.5 °F 14.0 °F 55% 30.05 in 10.0 mi SW 13.8 mph 21.9 mph N/A   Mostly Cloudy
9:56 PM 28.4 °F 17.5 °F 14.0 °F 55% 30.05 in 10.0 mi SW 13.8 mph - N/A   Scattered Clouds
10:16 PM 28.4 °F 19.1 °F 14.0 °F 55% 30.05 in 10.0 mi SW 10.4 mph 16.1 mph N/A   Mostly Cloudy
10:36 PM 28.4 °F 20.4 °F 14.0 °F 55% 30.05 in 10.0 mi SSW 8.1 mph 16.1 mph N/A   Overcast
10:56 PM 26.6 °F 16.8 °F 14.0 °F 59% 30.04 in 10.0 mi SW 10.4 mph 17.3 mph N/A   Mostly Cloudy
11:16 PM 26.6 °F 16.2 °F 15.8 °F 64% 30.03 in 10.0 mi WSW 11.5 mph 16.1 mph N/A   Mostly Cloudy
11:36 PM 26.6 °F 16.2 °F 17.6 °F 69% 30.03 in 7.0 mi SW 11.5 mph - N/A   Overcast
11:56 PM 24.8 °F 14.6 °F 17.6 °F 74% 30.03 in 4.0 mi SSW 10.4 mph - N/A   Haze